sat.trackr.live / text

‹ back to catalog

GEESAT-2 09

NORAD 58913 · 2024-023J

PAYLOAD ACTIVE UNKNOWN

§ Identity

Operator
Country
PRC
Launch date
2024-02-02
Launch site
XICLF
Launch vehicle
Mass (kg)
RCS (m²)

External: N2YO · Heavens-Above · Gunter

§ Orbital elements

Epoch: 2026-05-25T04:13:02.504352Z

Period
97.09 min
Inclination
50.0032°
Eccentricity
0.0022231
Mean motion
14.83141971 rev/d
Perigee alt
603.9 km
Apogee alt
635.0 km
Semi-major
6,997.6 km
B*
1.9587e-4
RAAN
100.7242°
Arg perigee
279.8506°
Mean anomaly
79.9922°
Rev number
12,550

§ Raw data

GEESAT-2 091 58913U 24023J   26145.17572343  .00001391  00000+0  19587-3 0  99932 58913  50.0032 100.7242 0022231 279.8506  79.9922 14.83141971125501

JSON: /api/v1/satellites/58913 · /tle

For live sub-satellite position, see the globe view (requires WebGL).

§ Visibility from observer

Set your observer location to see the next 7 days of passes ≥ 10°. The values pass through the URL so the page stays shareable.

No JS? Fill the form by hand. The geolocation button needs JavaScript.